Weather History for Fort Leonard Wood, MO

Change the Weather History Date:

Tuesday, November 20, 2012

  Actual Average Record
Temperature  
Mean Temperature 52 °F -  
Max Temperature 62 °F 52 °F 73 °F (2003)
Min Temperature 42 °F 37 °F 18 °F (2014)
Degree Days  
Heating Degree Days 13    
Growing Degree Days 2 (Base 50)    
Moisture  
Dew Point 44 °F    
Average Humidity 89    
Maximum Humidity 100    
Minimum Humidity 50    
Precipitation  
Precipitation 0.00 in - - ()
Sea Level Pressure  
Sea Level Pressure 30.19 in    
Wind  
Wind Speed 4 mph (West)    
Max Wind Speed 13 mph    
Max Gust Speed 17 mph    
Visibility 5 miles    
Events      
Averages and records for this station are not official NWS values.
T = Trace of Precipitation, MM = Missing Value Source: NWS Daily Summary

Daily Weather History Graph

Daily Weather History Graph

Search for Another Location

Airport:

Trip Planner

Search our weather history database for the weather conditions in past years. The results will help you decide how hot, cold, wet, or windy it might be!

Date:

Astronomy

Nov. 20, 2012 Rise Set
Actual Time 6:54 AM CST 4:53 PM CST
Civil Twilight 6:26 AM CST 5:22 PM CST
Nautical Twilight 5:54 AM CST 5:54 PM CST
Astronomical Twilight 5:22 AM CST 6:25 PM CST
Moon 12:32 PM CST (11/20) No Moon Set
Length of Visible Light 10h 55m
Length of Day
9h 59m
First Quarter, 51% of the Moon is Illuminated
Nov 20
First Quarter
Nov 28
Full
Dec 6
Last Quarter
Dec 13
New
Dec 19
First Quarter

Hourly Weather History & Observations

Time (CST) Temp. Windchill Dew Point Humidity Pressure Visibility Wind Dir Wind Speed Gust Speed Precip Events Conditions
12:55 AM 46.4 °F 44.3 °F 44.8 °F 94% 30.12 in 10.0 mi SSW 4.6 mph - N/A   Clear
1:55 AM 46.2 °F 43.3 °F 45.0 °F 95% 30.12 in 10.0 mi SSW 5.8 mph - N/A   Clear
2:55 AM 46.0 °F 43.1 °F 44.8 °F 95% 30.12 in 10.0 mi SW 5.8 mph - N/A   Clear
3:55 AM 46.0 °F 43.1 °F 45.1 °F 97% 30.10 in 10.0 mi SW 5.8 mph - N/A   Clear
4:55 AM 46.0 °F 43.1 °F 45.3 °F 97% 30.10 in 10.0 mi SW 5.8 mph - N/A   Clear
5:55 AM 45.3 °F 43.0 °F 45.0 °F 99% 30.12 in 10.0 mi WSW 4.6 mph - N/A   Clear
6:55 AM 46.0 °F 42.5 °F 45.5 °F 98% 30.13 in 10.0 mi WSW 6.9 mph - N/A   Clear
7:55 AM 47.7 °F - 46.4 °F 95% 30.15 in 10.0 mi WSW 4.6 mph - N/A   Clear
8:55 AM 50.0 °F - 46.9 °F 89% 30.16 in 10.0 mi West 5.8 mph - N/A   Partly Cloudy
9:55 AM 55.2 °F - 46.4 °F 72% 30.15 in 10.0 mi WSW 4.6 mph - N/A   Clear
10:55 AM 58.1 °F - 45.1 °F 62% 30.14 in 10.0 mi WNW 9.2 mph - N/A   Clear
11:55 AM 60.6 °F - 45.3 °F 57% 30.12 in 10.0 mi Variable 6.9 mph - N/A   Clear
12:55 PM 62.1 °F - 44.8 °F 53% 30.12 in 10.0 mi WNW 8.1 mph - N/A   Clear
1:55 PM 62.6 °F - 43.5 °F 50% 30.11 in 10.0 mi NW 12.7 mph 17.3 mph N/A   Clear
2:55 PM 62.1 °F - 44.2 °F 52% 30.12 in 10.0 mi NNW 11.5 mph - N/A   Clear
3:55 PM 61.2 °F - 44.4 °F 54% 30.13 in 10.0 mi NW 6.9 mph - N/A   Clear
4:55 PM 57.4 °F - 44.4 °F 62% 30.15 in 10.0 mi NNW 6.9 mph - N/A   Clear
5:55 PM 54.0 °F - 45.3 °F 73% 30.17 in 10.0 mi NNW 8.1 mph - N/A   Clear
6:55 PM 52.2 °F - 45.0 °F 76% 30.19 in 10.0 mi NW 6.9 mph - N/A   Clear
7:55 PM 50.9 °F - 45.0 °F 80% 30.20 in 10.0 mi Calm Calm - N/A   Clear
8:55 PM 50.0 °F - 45.3 °F 84% 30.20 in 10.0 mi Calm Calm - N/A   Clear
9:55 PM 48.4 °F - 45.1 °F 89% 30.20 in 7.0 mi Calm Calm - N/A   Clear
10:54 PM 46.4 °F - 44.6 °F 93% 30.21 in 2.5 mi Calm Calm - N/A   Clear
10:55 PM 45.9 °F - 44.8 °F 96% 30.21 in 2.0 mi Calm Calm - N/A   Clear
11:01 PM 46.4 °F - 44.6 °F 93% 30.22 in 1.8 mi Calm Calm - N/A   Clear
11:02 PM 46.4 °F - 44.6 °F 93% 30.22 in 1.5 mi Calm Calm - N/A   Clear
11:03 PM 46.4 °F - 44.6 °F 93% 30.22 in 1.2 mi Calm Calm - N/A   Clear
11:04 PM 46.4 °F - 44.6 °F 93% 30.22 in 1.5 mi Calm Calm - N/A   Clear
11:09 PM 44.6 °F - 44.6 °F 100% 30.22 in 1.8 mi Calm Calm - N/A   Clear
11:11 PM 44.6 °F - 44.6 °F 100% 30.22 in 2.0 mi Calm Calm - N/A   Clear
11:13 PM 44.6 °F - 44.6 °F 100% 30.22 in 3.0 mi Calm Calm - N/A   Clear
11:15 PM 44.6 °F - 44.6 °F 100% 30.22 in 2.5 mi Calm Calm - N/A   Clear
11:17 PM 46.4 °F - 44.6 °F 93% 30.22 in 1.8 mi Calm Calm - N/A   Clear
11:18 PM 46.4 °F - 44.6 °F 93% 30.22 in 1.5 mi Calm Calm - N/A   Clear
11:19 PM 46.4 °F - 44.6 °F 93% 30.22 in 1.2 mi Calm Calm - N/A   Clear
11:20 PM 46.4 °F - 44.6 °F 93% 30.22 in 1.0 mi Calm Calm - N/A   Clear
11:21 PM 46.4 °F - 44.6 °F 93% 30.22 in 0.8 mi Calm Calm - N/A   Clear
11:23 PM 46.4 °F - 44.6 °F 93% 30.22 in 0.8 mi Calm Calm - N/A   Clear
11:24 PM 44.6 °F - 44.6 °F 100% 30.22 in 0.8 mi Calm Calm - N/A   Clear
11:27 PM 44.6 °F - 42.8 °F 93% 30.22 in 1.0 mi Calm Calm - N/A   Clear
11:29 PM 44.6 °F - 42.8 °F 93% 30.22 in 1.2 mi Calm Calm - N/A   Clear
11:30 PM 42.8 °F - 42.8 °F 100% 30.22 in 1.5 mi Calm Calm - N/A   Clear
11:31 PM 42.8 °F - 42.8 °F 100% 30.22 in 2.0 mi Calm Calm - N/A   Clear
11:32 PM 42.8 °F - 42.8 °F 100% 30.22 in 4.0 mi Calm Calm - N/A   Clear
11:38 PM 42.8 °F - 42.8 °F 100% 30.22 in 2.5 mi Calm Calm - N/A   Clear
11:39 PM 42.8 °F - 42.8 °F 100% 30.22 in 1.8 mi Calm Calm - N/A   Clear
11:40 PM 42.8 °F - 42.8 °F 100% 30.22 in 1.5 mi Calm Calm - N/A   Clear
11:42 PM 42.8 °F - 42.8 °F 100% 30.22 in 1.2 mi Calm Calm - N/A   Clear
11:47 PM 42.8 °F - 42.8 °F 100% 30.22 in 1.5 mi Calm Calm - N/A   Clear
11:49 PM 42.8 °F - 42.8 °F 100% 30.22 in 1.8 mi Calm Calm - N/A   Clear
11:50 PM 42.8 °F - 42.8 °F 100% 30.22 in 2.0 mi Calm Calm - N/A   Clear
11:55 PM 43.7 °F - 43.3 °F 99% 30.22 in 2.0 mi Calm Calm - N/A   Clear
11:56 PM 42.8 °F - 42.8 °F 100% 30.22 in 1.8 mi Calm Calm - N/A   Clear